User: anonymous   Login
Location: Unspecified
(0.0000°N, 0.0000°E)
Time: 09:00:04
(UTC+00:00)
Language:

TBA - TO BE ASSIGNED - Orbit

View from above orbital plane
View from above orbital plane
View from above satellite
View from above satellite

Ground track
Ground track

The orbit is defined by the following mean orbital elements,

1 68957U          26145.58335647 +.00000000 +00000-0 +24320-3 0 00001
2 68957  53.1588 268.8521 0001521  46.8048  31.9076 15.49312187    05
Epoch (UTC): 25 May 2026 14:00:01
Eccentricity: 0.0001521
inclination: 53.1588°
perigee height: 418 km
apogee height: 420 km
right ascension of ascending node: 268.8521°
argument of perigee: 46.8048°
revolutions per day: 15.49312187
mean anomaly at epoch: 31.9076°

The dashed part of the orbit path shows where the satellite is in the earth's shadow,  

DLR